{"data":{"norad_id":49133,"intl_designator":"2021-082D","name":"STARLINK-3077","alt_names":[],"object_type":"PAYLOAD","status":"ACTIVE","operator":null,"country":"US","launch_date":"2021-09-14","launch_site_code":"AFWTR","launch_vehicle":null,"mission":null,"orbit_class":"UNKNOWN","rcs_meters":null,"size_class":null,"mass_kg":null,"dimensions":null,"purposes":["comms"],"wikipedia_slug":null,"has_3d_model":false,"image_url":null,"decayed_at":null,"tle_current":{"epoch":"2026-09-19T23:51:06.088608Z","epoch_age_seconds":85050,"freshness":"FRESH","line1":"1 49133U 21082D   26262.99382047  .00000266  00000+0  30119-4 0  9994","line2":"2 49133  69.9993 164.5466 0002879 269.1679  90.9150 14.98332878275084","mean_motion":14.98332878,"eccentricity":0.0002879,"inclination_deg":69.9993,"raan_deg":164.5466,"arg_perigee_deg":269.1679,"mean_anomaly_deg":90.915,"bstar":3.0119e-5,"rev_number":27508,"period_min":96.106814523228,"perigee_km":570.04603301007,"apogee_km":574.04794895207,"semimajor_km":6950.1839909811,"source":"CELESTRAK","updated_at":"2026-09-20T09:00:39.247010Z"}}}